Wind_Speed
34 28 26 29 33 36 32 31 31 30 31 30 30 28 29 32 32 32 31 32 31 30 33 35 38 40 43 46 46 48 53 54 56 55 51 48 46 46 45 43 42 43 43 43 43 43 41 40 41
29 25 20 21 22 24 28 29 28 29 29 28 26 25 27 28 27 29 28 27 28 33 37 40 43 45 47 49 51 53 53 51 49 50 50 47 47 47 46 46 45 42 42 42 44 45 44 42 41
25 22 21 19 17 19 25 21 23 24 25 23 21 22 24 26 28 26 28 32 36 40 44 46 48 50 52 51 50 50 48 47 46 45 42 41 40 41 43 45 46 45 45 41 40 43 45 46 44
26 24 21 18 15 17 22 24 23 22 22 18 19 22 24 26 27 30 37 40 44 46 49 49 51 50 50 50 49 46 44 43 38 34 33 32 32 34 36 39 41 45 47 46 42 40 45 46 46
27 25 21 19 17 25 20 19 20 21 23 22 22 25 26 29 33 38 43 45 47 48 50 52 50 50 48 46 44 41 38 34 29 24 24 28 30 32 33 34 36 39 41 44 48 46 41 42 47
29 25 22 19 16 18 20 19 27 26 23 21 24 29 34 34 39 43 43 45 45 47 47 49 48 47 47 43 39 35 27 25 24 26 27 27 28 29 31 29 31 35 40 45 44 47 47 46 44
31 27 24 21 20 18 21 19 19 20 22 27 31 35 34 39 42 42 42 43 44 45 46 45 45 45 42 36 32 27 24 25 27 28 30 30 29 32 33 36 35 33 34 37 38 44 48 49 50
34 29 27 23 21 22 23 26 28 33 35 35 32 35 37 39 38 39 40 42 42 43 46 47 47 42 33 32 27 24 24 25 28 30 30 31 32 31 33 36 38 39 42 41 43 42 43 50 50
36 31 29 24 25 24 23 26 29 33 32 30 37 34 35 34 36 39 41 42 43 45 46 45 40 33 30 25 24 25 26 28 30 31 32 35 33 32 35 36 38 41 45 47 48 48 50 50 51
37 33 32 26 27 25 25 26 24 24 29 30 28 32 33 35 38 40 39 42 45 47 47 40 32 31 27 23 24 27 28 29 32 34 35 36 37 35 38 41 42 44 48 50 52 52 54 58 54
38 37 34 31 28 28 28 26 25 26 28 26 28 31 34 37 39 40 43 45 46 46 41 35 31 29 26 25 27 29 32 30 34 37 36 39 38 37 41 44 47 51 53 53 52 53 57 64 65
40 39 36 34 30 31 29 27 27 29 26 26 28 32 36 38 41 43 47 46 47 43 37 35 31 27 26 29 29 32 33 35 37 38 40 39 38 40 44 48 52 58 57 54 58 61 63 61 64
39 37 36 35 34 34 31 28 28 28 27 28 33 36 38 40 44 46 46 46 41 38 36 34 30 29 29 32 33 34 36 37 39 40 39 38 39 44 45 50 58 63 61 58 63 60 59 68 74
41 38 37 37 35 36 33 30 28 28 29 33 35 37 41 44 45 47 45 44 37 37 37 35 32 31 32 33 35 37 38 40 41 38 36 37 41 47 51 56 62 69 65 57 59 58 61 65 69
42 41 41 40 37 37 35 31 31 31 32 35 36 41 44 46 45 46 45 41 37 38 38 37 34 34 35 37 39 41 42 42 40 36 35 39 44 49 55 59 62 68 70 58 52 53 53 46 48
41 41 41 41 39 38 35 35 33 37 37 37 41 47 45 48 47 48 43 41 39 39 39 37 37 37 39 40 42 43 44 42 39 37 41 42 48 51 55 57 58 63 72 63 52 50 44 31 36
37 42 42 41 39 37 38 35 38 40 40 41 44 50 50 48 48 46 41 39 38 37 40 40 41 41 43 45 45 46 44 40 39 44 43 47 50 52 55 57 56 55 59 65 50 36 24 17 18
43 44 40 39 41 41 40 39 40 43 42 44 48 52 52 49 46 42 37 36 37 39 41 43 43 45 47 48 48 46 40 40 46 47 49 50 52 54 54 56 55 49 55 52 47 29 10 11 23
46 44 41 43 43 45 42 44 40 45 46 49 52 54 53 49 44 40 37 38 39 41 43 45 47 49 50 51 50 45 43 49 49 53 53 56 55 56 56 55 53 48 44 43 33 30 10 21 23
47 45 45 45 47 46 46 47 44 49 51 52 55 57 53 50 44 41 40 40 41 45 47 50 52 52 53 53 51 49 52 54 57 58 59 61 61 61 62 59 54 51 38 42 23 14 13 30 37
49 48 49 49 50 48 51 49 51 54 54 57 60 56 52 48 44 42 42 43 46 49 52 55 56 55 55 54 52 54 57 59 63 65 66 66 67 67 67 63 61 55 37 35 25 25 33 41 47
52 52 53 53 52 51 56 52 56 60 63 61 60 56 49 44 45 47 48 50 53 56 58 59 59 57 56 55 57 59 62 65 68 70 71 72 73 72 70 70 63 54 47 43 31 39 45 52 58
54 55 57 56 56 55 59 60 55 63 69 63 59 54 48 47 48 51 54 56 59 61 63 62 61 61 60 62 65 67 70 71 74 76 77 79 80 78 78 74 73 66 53 44 37 34 47 55 65
58 60 61 58 60 58 62 64 61 66 67 60 54 52 51 53 56 58 61 63 66 67 66 65 64 66 69 70 73 75 76 78 80 83 84 85 86 86 83 80 77 72 68 55 40 32 42 54 60
60 62 62 62 64 64 65 67 67 65 60 56 57 57 58 60 62 65 67 70 70 69 71 71 73 75 77 79 81 83 85 86 87 88 89 90 91 89 89 86 81 75 67 61 55 49 46 53 62
61 63 65 63 66 65 69 67 64 61 60 60 63 64 65 67 69 71 72 72 72 74 75 77 80 83 85 88 90 90 92 94 95 96 97 97 97 96 91 86 80 77 76 67 64 58 57 58 62
65 67 68 70 67 63 63 60 59 62 66 69 70 70 70 71 73 74 75 76 79 80 83 86 88 90 93 95 96 97 100 101 102 102 102 102 100 98 95 90 86 82 79 76 71 67 60 60 68
65 67 66 62 58 58 60 63 65 69 73 72 72 71 74 78 80 81 83 86 87 88 91 93 96 98 101 102 105 105 106 107 107 107 105 105 103 102 100 96 90 90 86 77 74 72 71 67 70
58 60 61 62 64 63 64 67 68 69 72 74 75 74 77 82 84 86 90 93 94 96 99 101 103 104 106 107 109 109 109 109 110 111 111 109 108 109 108 103 99 94 87 83 78 77 76 77 76
56 59 60 60 62 64 68 67 72 76 77 77 78 80 83 90 91 92 94 96 97 98 100 102 104 104 105 108 108 111 113 115 117 117 117 118 118 116 110 107 103 97 92 90 86 80 82 82 86
Wind_Direction
249 248 249 260 259 259 256 257 261 261 262 261 265 265 267 269 274 279 279 279 280 279 285 290 289 288 288 288 287 289 289 289 290 289 286 281 277 274 270 264 261 258 258 258 257 255 255 255 256
239 242 248 257 256 254 253 257 258 259 258 259 262 267 269 273 277 279 281 283 282 286 288 290 290 289 287 287 288 287 289 290 288 286 285 282 276 271 270 267 262 260 258 257 258 259 258 257 256
236 240 247 253 261 255 253 247 248 254 259 258 262 264 267 274 278 281 286 285 285 286 287 287 288 289 290 290 289 290 291 291 290 288 284 282 279 274 270 266 263 259 258 255 255 256 257 258 257
239 243 248 248 248 241 250 249 254 256 261 266 267 269 272 276 283 286 284 284 285 287 289 288 291 292 291 292 292 292 292 291 287 281 278 278 277 274 271 268 267 259 256 254 255 256 255 253 255
239 243 247 250 249 244 255 256 264 266 263 266 271 273 276 285 287 288 286 287 288 288 289 291 292 294 292 292 294 293 291 284 278 274 270 273 269 268 267 265 265 264 257 255 254 253 256 255 253
243 247 249 251 256 259 243 264 272 260 253 254 266 283 291 288 288 290 290 290 290 291 291 293 296 294 294 295 292 288 277 270 269 279 280 281 283 278 277 279 277 271 266 258 254 255 255 254 251
244 247 249 249 262 267 242 259 273 269 261 273 283 288 287 288 290 289 288 289 289 290 292 293 295 296 295 291 286 273 270 273 278 281 280 282 282 280 278 278 276 273 266 260 259 258 252 253 254
243 244 249 253 263 269 272 255 254 263 272 282 287 284 295 294 289 288 288 288 290 292 293 293 293 294 287 282 270 269 280 281 279 279 284 285 280 279 275 274 277 272 268 266 262 262 259 256 251
242 245 250 256 262 271 276 273 268 266 273 281 286 294 291 288 287 287 286 290 291 291 293 295 292 286 278 268 274 280 281 284 282 282 284 287 285 282 282 277 273 268 267 268 268 267 266 261 258
242 245 249 252 261 269 276 277 276 278 281 286 289 291 287 285 285 288 289 288 288 290 293 291 284 277 266 274 281 288 287 284 287 288 290 289 289 288 285 284 280 275 271 272 270 270 270 268 262
243 246 251 249 261 269 275 279 278 286 283 286 288 293 289 284 286 289 286 292 292 292 287 283 276 274 275 281 288 294 291 289 291 290 291 288 286 284 285 286 288 284 279 277 278 276 269 267 265
244 249 249 252 265 269 272 278 282 286 285 282 287 293 292 290 292 291 291 293 293 287 280 276 272 272 279 285 290 295 292 291 292 292 291 288 284 287 288 289 288 285 282 285 289 283 275 268 260
243 248 249 256 264 269 271 278 281 286 285 286 293 295 292 292 295 293 294 297 289 277 278 277 271 278 282 287 291 293 292 292 295 293 289 287 286 286 289 291 292 289 289 292 292 285 277 272 262
245 248 253 258 265 269 272 279 284 285 285 292 295 296 296 295 296 296 295 295 281 275 277 276 275 276 282 289 293 294 294 295 296 293 289 288 292 296 297 297 297 299 298 301 300 288 283 274 257
248 251 256 262 268 272 272 279 281 286 290 292 299 302 297 295 295 293 293 288 275 274 273 275 275 281 286 291 294 294 296 296 293 287 289 295 299 302 301 303 305 307 304 307 309 300 293 280 259
253 256 261 267 271 270 272 279 283 287 288 293 295 301 297 295 294 292 288 277 272 273 273 276 279 284 287 293 293 295 296 294 288 289 297 301 305 304 304 307 308 310 309 313 318 319 306 285 255
245 260 265 268 270 270 274 277 283 286 286 292 296 301 298 295 295 291 283 277 274 275 277 278 279 286 288 293 295 296 295 291 292 297 297 302 304 305 307 308 308 317 322 317 325 319 310 310 284
251 261 261 268 269 270 276 279 283 287 286 292 298 300 297 296 293 289 281 276 274 274 277 278 282 286 292 294 296 295 292 290 293 296 298 299 302 306 307 308 311 323 332 322 323 320 343 324 276
252 259 259 264 267 272 278 281 282 285 289 293 297 300 296 294 290 284 277 274 273 274 277 279 284 290 294 295 294 290 290 293 293 295 297 301 303 306 306 307 311 322 336 332 320 323 332 240 246
256 255 262 262 266 273 278 281 283 289 289 293 298 298 293 290 287 281 276 275 274 277 279 282 287 291 294 294 292 290 292 294 294 297 298 300 301 304 305 306 308 318 327 332 295 268 224 213 218
256 257 262 265 270 273 279 282 284 287 290 293 297 293 288 284 282 280 277 275 277 280 282 286 289 291 292 292 291 291 292 293 294 295 297 298 300 301 301 302 305 307 313 327 279 245 221 215 212
254 259 264 267 271 275 279 281 284 289 293 293 294 289 285 281 280 278 277 278 279 280 284 286 287 290 290 289 289 289 291 291 294 295 296 297 298 297 298 301 302 303 305 307 306 247 236 223 224
256 261 265 269 273 276 280 282 287 290 291 291 289 285 281 278 277 276 276 278 280 283 285 288 290 289 289 290 290 291 292 293 294 294 295 296 297 298 299 301 302 301 296 293 292 281 244 238 234
257 261 265 272 276 278 282 288 289 287 287 286 283 281 280 280 279 280 281 283 283 285 287 289 289 288 288 288 291 292 293 293 293 295 295 296 297 299 300 301 301 301 300 292 278 265 263 247 240
260 264 269 273 277 281 284 284 284 280 282 280 280 280 281 281 281 282 283 285 287 288 288 289 288 288 289 292 293 293 293 293 293 294 295 295 296 297 299 299 299 298 297 293 287 269 260 249 244
263 266 271 277 278 278 278 279 279 280 279 278 279 281 282 283 284 283 283 284 285 286 287 288 289 290 290 290 292 293 293 294 295 295 296 296 297 297 297 297 297 296 297 291 288 276 267 257 251
268 271 274 275 274 276 276 277 277 278 279 280 280 282 284 284 283 283 284 286 286 288 288 288 289 291 292 292 293 292 292 293 294 294 294 294 294 294 295 295 295 294 294 291 290 281 266 259 255
265 268 270 273 273 273 275 276 276 277 279 280 281 283 285 285 285 286 288 287 288 289 289 290 290 290 290 290 291 292 291 292 292 292 293 292 292 293 293 294 294 293 291 286 284 280 276 264 257
268 269 270 272 274 274 274 276 276 276 278 281 285 288 288 285 286 287 287 288 288 289 290 289 290 290 291 291 291 292 291 291 292 291 291 291 291 292 293 292 292 290 287 285 281 278 273 265 258
269 270 271 272 273 274 275 276 278 277 278 281 282 282 282 286 288 289 290 291 291 290 290 291 291 289 289 290 290 290 290 290 289 289 289 290 290 291 290 290 289 288 286 283 278 274 266 262 259
Height
10848 10851 10854 10856 10858 10860 10863 10864 10866 10867 10868 10868 10869 10869 10869 10869 10870 10870 10869 10868 10866 10865 10862 10859 10858 10856 10854 10852 10850 10849 10846 10843 10841 10839 10836 10835 10835 10835 10836 10836 10836 10836 10836 10838 10840 10841 10843 10844 10845
10843 10847 10850 10852 10853 10855 10858 10860 10861 10862 10863 10863 10863 10864 10863 10863 10864 10864 10864 10862 10861 10859 10856 10853 10851 10849 10847 10845 10842 10840 10838 10834 10831 10829 10826 10825 10825 10825 10826 10826 10827 10828 10828 10830 10830 10831 10833 10836 10837
10839 10842 10846 10848 10849 10851 10852 10855 10856 10857 10858 10859 10859 10859 10859 10858 10858 10858 10857 10857 10855 10853 10849 10848 10845 10842 10839 10836 10834 10831 10829 10826 10823 10821 10818 10817 10816 10815 10815 10815 10817 10818 10819 10821 10821 10821 10822 10824 10828
10835 10839 10842 10844 10845 10847 10848 10850 10851 10852 10854 10854 10855 10854 10854 10854 10854 10852 10851 10850 10848 10846 10841 10840 10837 10834 10831 10827 10825 10823 10821 10818 10815 10813 10812 10810 10809 10807 10806 10806 10806 10808 10809 10811 10813 10813 10813 10814 10816
10831 10835 10838 10840 10841 10843 10844 10846 10847 10848 10849 10850 10850 10849 10849 10849 10847 10845 10844 10842 10840 10837 10834 10830 10829 10826 10823 10821 10818 10815 10813 10810 10808 10807 10806 10805 10802 10800 10799 10798 10798 10798 10800 10801 10804 10805 10805 10806 10809
10827 10831 10833 10836 10837 10838 10841 10842 10842 10842 10843 10843 10844 10843 10844 10842 10840 10838 10835 10833 10831 10829 10826 10823 10821 10818 10814 10814 10811 10808 10806 10804 10803 10802 10800 10799 10797 10795 10795 10794 10793 10794 10792 10792 10795 10795 10796 10797 10799
10823 10826 10829 10831 10833 10835 10837 10837 10838 10838 10838 10838 10838 10838 10837 10835 10832 10830 10828 10826 10824 10821 10819 10816 10814 10811 10808 10805 10804 10802 10801 10799 10797 10795 10794 10792 10790 10789 10788 10786 10786 10786 10784 10784 10785 10787 10786 10786 10788
10818 10822 10825 10827 10830 10831 10832 10833 10833 10832 10833 10832 10832 10831 10829 10827 10825 10823 10821 10819 10817 10815 10812 10809 10807 10804 10800 10798 10799 10797 10795 10793 10791 10789 10787 10783 10782 10781 10780 10779 10778 10777 10776 10775 10774 10773 10775 10777 10775
10813 10817 10821 10823 10825 10826 10826 10827 10827 10827 10827 10827 10826 10824 10823 10821 10819 10817 10814 10813 10809 10806 10803 10802 10799 10796 10795 10794 10793 10790 10789 10786 10783 10782 10780 10776 10775 10774 10772 10771 10769 10768 10765 10764 10764 10762 10761 10761 10763
10808 10812 10815 10819 10820 10821 10821 10822 10821 10821 10821 10820 10820 10818 10816 10814 10812 10811 10809 10806 10803 10799 10796 10794 10792 10791 10789 10788 10785 10783 10781 10779 10776 10774 10772 10768 10766 10766 10763 10760 10760 10757 10755 10753 10751 10750 10749 10747 10750
10804 10807 10811 10813 10815 10816 10817 10816 10816 10816 10815 10814 10814 10812 10809 10807 10806 10805 10802 10799 10796 10791 10788 10787 10786 10784 10783 10781 10779 10776 10773 10772 10769 10766 10764 10761 10758 10757 10755 10751 10748 10744 10740 10739 10738 10737 10735 10732 10732
10799 10802 10806 10807 10810 10811 10812 10811 10811 10810 10810 10809 10808 10806 10803 10801 10799 10797 10795 10792 10788 10784 10783 10782 10780 10779 10778 10775 10773 10770 10767 10764 10761 10759 10755 10753 10751 10749 10745 10741 10737 10732 10726 10724 10720 10716 10711 10709 10711
10793 10797 10800 10802 10804 10806 10806 10806 10805 10805 10804 10803 10801 10800 10797 10795 10793 10789 10786 10783 10780 10778 10777 10775 10774 10773 10772 10769 10766 10763 10760 10757 10753 10750 10747 10744 10742 10739 10737 10732 10724 10717 10712 10709 10700 10691 10690 10686 10680
10788 10791 10794 10796 10799 10800 10801 10800 10799 10799 10798 10796 10795 10794 10791 10788 10785 10781 10778 10774 10772 10770 10769 10768 10768 10766 10764 10762 10758 10755 10752 10748 10744 10741 10738 10736 10734 10729 10725 10719 10711 10700 10693 10690 10679 10668 10663 10654 10649
10782 10785 10788 10790 10793 10794 10795 10793 10792 10791 10791 10789 10787 10785 10783 10780 10777 10773 10770 10766 10764 10763 10762 10761 10760 10758 10756 10753 10749 10746 10743 10739 10736 10733 10730 10728 10725 10720 10714 10706 10697 10684 10675 10669 10663 10647 10636 10628 10630
10776 10780 10782 10784 10786 10788 10788 10786 10786 10784 10783 10782 10780 10776 10775 10771 10767 10763 10761 10759 10758 10757 10755 10755 10753 10750 10747 10744 10741 10737 10734 10731 10728 10726 10724 10720 10716 10711 10703 10694 10686 10672 10662 10655 10648 10631 10619 10616 10618
10770 10773 10776 10778 10779 10780 10780 10780 10776 10777 10774 10773 10770 10768 10764 10761 10757 10754 10751 10750 10750 10749 10748 10747 10745 10742 10738 10735 10732 10728 10725 10723 10721 10719 10715 10711 10706 10701 10693 10685 10678 10669 10656 10642 10641 10627 10615 10615 10619
10764 10767 10769 10772 10770 10772 10772 10772 10771 10767 10766 10763 10761 10758 10753 10751 10749 10745 10743 10743 10742 10741 10739 10738 10735 10733 10729 10726 10722 10719 10716 10714 10711 10708 10704 10700 10695 10690 10685 10677 10670 10662 10653 10644 10638 10633 10619 10617 10624
10758 10760 10763 10763 10763 10763 10763 10762 10763 10758 10756 10753 10751 10748 10745 10742 10739 10737 10736 10735 10733 10732 10730 10728 10726 10722 10719 10715 10712 10709 10706 10703 10700 10697 10692 10687 10683 10678 10673 10669 10662 10658 10652 10643 10635 10632 10625 10627 10628
10752 10754 10756 10756 10755 10755 10754 10753 10753 10749 10745 10744 10742 10737 10734 10732 10730 10728 10727 10726 10725 10723 10720 10718 10715 10712 10708 10704 10700 10697 10694 10691 10686 10683 10679 10675 10669 10665 10660 10655 10653 10651 10648 10645 10639 10633 10627 10626 10631
10745 10746 10747 10748 10746 10747 10743 10745 10742 10737 10735 10733 10731 10727 10725 10722 10720 10719 10718 10716 10714 10712 10709 10706 10703 10700 10696 10693 10689 10685 10682 10677 10672 10668 10664 10661 10656 10651 10646 10643 10640 10638 10637 10639 10637 10632 10630 10628 10627
10736 10738 10738 10737 10737 10737 10731 10737 10733 10725 10722 10721 10719 10717 10714 10712 10711 10710 10708 10705 10702 10698 10695 10692 10689 10686 10683 10679 10675 10671 10667 10663 10658 10653 10649 10644 10641 10638 10634 10628 10626 10624 10623 10624 10628 10629 10624 10621 10620
10728 10728 10728 10727 10727 10727 10723 10721 10725 10717 10709 10709 10705 10704 10703 10701 10699 10697 10694 10690 10686 10683 10680 10678 10675 10671 10669 10665 10661 10657 10653 10648 10642 10636 10632 10627 10623 10620 10617 10614 10608 10605 10605 10606 10608 10612 10610 10610 10610
10719 10718 10717 10717 10716 10716 10713 10709 10711 10704 10697 10696 10693 10692 10691 10689 10687 10684 10681 10676 10672 10669 10667 10663 10659 10654 10651 10648 10644 10640 10636 10631 10626 10621 10615 10610 10606 10602 10598 10595 10592 10588 10585 10585 10586 10588 10592 10592 10591
10709 10708 10708 10708 10705 10704 10702 10698 10695 10688 10687 10685 10681 10680 10679 10676 10673 10669 10664 10660 10657 10654 10650 10646 10641 10637 10634 10630 10626 10621 10616 10611 10606 10601 10596 10591 10585 10581 10577 10574 10571 10568 10566 10564 10566 10566 10565 10567 10569
10698 10697 10695 10695 10694 10694 10688 10684 10679 10675 10671 10670 10668 10667 10664 10661 10656 10651 10646 10643 10640 10635 10631 10626 10622 10617 10613 10608 10604 10599 10592 10588 10583 10578 10573 10567 10563 10559 10555 10551 10550 10547 10545 10546 10546 10545 10544 10545 10544
10687 10684 10684 10681 10680 10680 10675 10672 10669 10663 10657 10654 10653 10652 10648 10643 10637 10633 10631 10628 10622 10617 10611 10606 10602 10596 10590 10585 10580 10575 10569 10564 10559 10553 10549 10544 10538 10534 10531 10529 10525 10523 10523 10523 10522 10521 10523 10521 10519
10672 10670 10667 10666 10667 10666 10663 10658 10655 10648 10639 10637 10636 10637 10631 10623 10618 10615 10612 10605 10602 10597 10590 10585 10579 10574 10568 10562 10557 10552 10545 10539 10533 10527 10522 10516 10512 10508 10505 10503 10500 10498 10497 10497 10498 10497 10495 10496 10496
10659 10656 10654 10653 10651 10651 10651 10643 10638 10634 10629 10624 10623 10623 10612 10599 10598 10597 10590 10586 10582 10575 10566 10562 10555 10549 10543 10537 10531 10524 10518 10511 10505 10499 10493 10488 10484 10479 10476 10473 10471 10469 10469 10468 10469 10468 10470 10471 10468
10645 10642 10640 10639 10637 10634 10629 10632 10619 10613 10610 10612 10608 10602 10594 10581 10580 10574 10568 10561 10555 10552 10547 10539 10530 10523 10518 10511 10504 10496 10489 10481 10475 10469 10463 10457 10453 10448 10446 10443 10440 10437 10436 10437 10437 10438 10441 10440 10441